TimeCDT,TemperatureF,Dew PointF,Humidity,Sea Level PressureIn,VisibilityMPH,Wind Direction,Wind SpeedMPH,Gust SpeedMPH,PrecipitationIn,Events,Conditions,WindDirDegrees,DateUTC
12:15 AM,76.5,70.3,81,29.91,10.0,SSE,8.1,-,N/A,,Mostly Cloudy,160,2013-09-27 05:15:00
12:35 AM,76.3,70.2,81,29.91,10.0,SSE,11.5,17.3,N/A,,Mostly Cloudy,160,2013-09-27 05:35:00
12:55 AM,75.7,70.0,82,29.91,10.0,SSE,9.2,-,N/A,,Mostly Cloudy,160,2013-09-27 05:55:00
1:15 AM,75.7,69.8,82,29.92,10.0,South,9.2,16.1,N/A,,Mostly Cloudy,170,2013-09-27 06:15:00
1:35 AM,74.5,66.6,76,29.92,10.0,South,11.5,20.7,N/A,,Mostly Cloudy,170,2013-09-27 06:35:00
1:55 AM,73.8,67.1,80,29.92,10.0,SSE,6.9,16.1,N/A,,Scattered Clouds,150,2013-09-27 06:55:00
2:15 AM,73.4,67.5,82,29.92,10.0,SSE,9.2,-,N/A,,Mostly Cloudy,160,2013-09-27 07:15:00
2:35 AM,73.4,67.6,82,29.92,10.0,South,9.2,-,N/A,,Overcast,170,2013-09-27 07:35:00
2:55 AM,73.6,67.6,82,29.92,10.0,South,6.9,-,N/A,,Overcast,180,2013-09-27 07:55:00
3:15 AM,73.4,67.6,82,29.91,10.0,South,8.1,-,N/A,,Overcast,170,2013-09-27 08:15:00
3:35 AM,72.9,68.0,85,29.91,10.0,SSE,5.8,-,N/A,,Mostly Cloudy,160,2013-09-27 08:35:00
3:55 AM,72.5,68.0,86,29.90,10.0,SSE,4.6,-,N/A,,Mostly Cloudy,160,2013-09-27 08:55:00
4:15 AM,72.3,68.0,86,29.90,10.0,SSE,3.5,-,N/A,,Mostly Cloudy,160,2013-09-27 09:15:00
4:35 AM,72.0,68.2,88,29.90,10.0,South,4.6,-,N/A,,Mostly Cloudy,170,2013-09-27 09:35:00
4:55 AM,72.5,68.9,88,29.90,10.0,SSE,4.6,-,N/A,,Overcast,150,2013-09-27 09:55:00
5:15 AM,72.9,68.9,87,29.90,10.0,SSE,5.8,-,N/A,,Overcast,160,2013-09-27 10:15:00
5:35 AM,73.4,69.1,86,29.90,10.0,South,8.1,-,N/A,,Overcast,170,2013-09-27 10:35:00
5:55 AM,73.6,68.9,85,29.90,10.0,South,8.1,-,N/A,,Overcast,180,2013-09-27 10:55:00
6:15 AM,73.8,68.9,85,29.91,10.0,South,6.9,-,N/A,,Overcast,170,2013-09-27 11:15:00
6:35 AM,73.8,68.5,84,29.92,10.0,South,6.9,-,N/A,,Overcast,170,2013-09-27 11:35:00
6:55 AM,73.8,68.2,83,29.92,10.0,SSE,3.5,-,N/A,,Overcast,160,2013-09-27 11:55:00
7:15 AM,73.8,68.4,83,29.92,10.0,SSE,3.5,-,N/A,,Overcast,150,2013-09-27 12:15:00
7:35 AM,73.6,68.7,85,29.92,10.0,SE,4.6,-,N/A,,Overcast,140,2013-09-27 12:35:00
7:55 AM,73.8,68.4,83,29.93,10.0,South,9.2,-,N/A,,Overcast,170,2013-09-27 12:55:00
8:15 AM,73.9,68.4,83,29.93,10.0,SSE,4.6,-,N/A,,Overcast,160,2013-09-27 13:15:00
8:35 AM,74.3,68.7,83,29.94,10.0,SSE,8.1,-,N/A,,Overcast,160,2013-09-27 13:35:00
8:55 AM,74.3,68.9,83,29.94,10.0,SSE,6.9,-,N/A,,Overcast,150,2013-09-27 13:55:00
9:15 AM,74.3,68.9,83,29.95,10.0,SSE,8.1,-,N/A,,Overcast,160,2013-09-27 14:15:00
9:35 AM,74.8,69.6,84,29.95,10.0,SSE,9.2,-,N/A,,Overcast,160,2013-09-27 14:35:00
9:55 AM,75.4,69.8,83,29.95,10.0,SSE,8.1,-,N/A,,Overcast,160,2013-09-27 14:55:00
10:15 AM,75.9,70.0,82,29.95,10.0,South,10.4,17.3,N/A,,Overcast,170,2013-09-27 15:15:00
10:35 AM,76.5,70.2,81,29.95,10.0,SSE,9.2,-,N/A,,Overcast,160,2013-09-27 15:35:00
10:55 AM,76.6,70.2,80,29.95,10.0,SSE,10.4,-,N/A,,Overcast,160,2013-09-27 15:55:00
11:15 AM,77.2,70.3,79,29.95,10.0,South,9.2,16.1,N/A,,Overcast,170,2013-09-27 16:15:00
11:35 AM,78.4,70.3,76,29.95,10.0,South,8.1,-,N/A,,Overcast,170,2013-09-27 16:35:00
11:55 AM,79.3,70.2,73,29.94,10.0,South,10.4,-,N/A,,Overcast,180,2013-09-27 16:55:00
12:15 PM,79.5,69.6,72,29.94,10.0,South,12.7,17.3,N/A,,Overcast,190,2013-09-27 17:15:00
12:35 PM,80.6,69.4,69,29.94,10.0,South,10.4,-,N/A,,Overcast,180,2013-09-27 17:35:00
12:55 PM,81.7,69.6,67,29.93,10.0,South,13.8,19.6,N/A,,Overcast,190,2013-09-27 17:55:00
1:15 PM,81.7,69.8,67,29.93,10.0,South,13.8,-,N/A,,Overcast,190,2013-09-27 18:15:00
1:35 PM,82.2,70.0,66,29.92,10.0,SSE,8.1,-,N/A,,Overcast,160,2013-09-27 18:35:00
1:55 PM,82.8,70.2,66,29.91,10.0,South,9.2,-,N/A,,Overcast,180,2013-09-27 18:55:00
2:15 PM,83.8,69.6,62,29.90,10.0,South,13.8,-,N/A,,Overcast,170,2013-09-27 19:15:00
2:35 PM,85.5,69.3,58,29.89,10.0,SSW,12.7,17.3,N/A,,Mostly Cloudy,200,2013-09-27 19:35:00
2:55 PM,84.9,68.9,59,29.88,10.0,South,11.5,-,N/A,,Overcast,180,2013-09-27 19:55:00
3:15 PM,85.6,68.5,56,29.87,10.0,South,12.7,16.1,N/A,,Mostly Cloudy,180,2013-09-27 20:15:00
3:35 PM,86.7,67.3,52,29.87,10.0,South,15.0,21.9,N/A,,Mostly Cloudy,190,2013-09-27 20:35:00
3:55 PM,87.6,67.5,51,29.87,10.0,SSW,11.5,-,N/A,,Mostly Cloudy,200,2013-09-27 20:55:00
4:15 PM,88.5,67.3,49,29.86,10.0,South,13.8,20.7,N/A,,Overcast,190,2013-09-27 21:15:00
4:35 PM,89.4,68.4,50,29.86,10.0,SSW,11.5,21.9,N/A,,Mostly Cloudy,200,2013-09-27 21:35:00
4:55 PM,86.9,67.8,53,29.86,10.0,SSE,10.4,-,N/A,,Mostly Cloudy,160,2013-09-27 21:55:00
5:15 PM,87.1,67.3,52,29.85,10.0,South,10.4,19.6,N/A,Thunderstorm,Scattered Clouds,170,2013-09-27 22:15:00
5:35 PM,86.5,67.3,52,29.85,10.0,South,11.5,17.3,N/A,,Clear,180,2013-09-27 22:35:00
5:55 PM,86.9,67.5,52,29.86,10.0,SSE,12.7,19.6,N/A,,Scattered Clouds,160,2013-09-27 22:55:00
6:15 PM,85.3,68.4,57,29.85,10.0,SSE,8.1,-,N/A,,Clear,150,2013-09-27 23:15:00
6:35 PM,83.5,71.8,68,29.86,10.0,SE,10.4,17.3,N/A,,Scattered Clouds,130,2013-09-27 23:35:00
6:55 PM,82.8,71.6,69,29.85,10.0,SE,10.4,16.1,N/A,,Scattered Clouds,130,2013-09-27 23:55:00
7:15 PM,81.9,71.2,70,29.85,10.0,SE,12.7,16.1,N/A,,Clear,140,2013-09-28 00:15:00
7:35 PM,81.3,70.7,70,29.86,10.0,SSE,10.4,18.4,N/A,,Clear,150,2013-09-28 00:35:00
7:55 PM,80.8,70.2,70,29.86,10.0,SE,5.8,-,N/A,,Clear,140,2013-09-28 00:55:00
8:15 PM,80.1,70.3,72,29.87,10.0,SE,6.9,-,N/A,,Clear,140,2013-09-28 01:15:00
8:35 PM,79.7,70.3,73,29.88,10.0,SSE,8.1,-,N/A,,Clear,150,2013-09-28 01:35:00
8:55 PM,79.3,70.7,75,29.89,10.0,SSE,11.5,17.3,N/A,,Scattered Clouds,150,2013-09-28 01:55:00
9:15 PM,79.0,70.7,76,29.90,10.0,SE,6.9,-,N/A,,Clear,140,2013-09-28 02:15:00
9:35 PM,78.8,70.7,76,29.89,10.0,SE,10.4,-,N/A,,Clear,140,2013-09-28 02:35:00
9:55 PM,78.3,70.9,78,29.90,10.0,SSE,8.1,-,N/A,,Scattered Clouds,150,2013-09-28 02:55:00
10:15 PM,77.9,70.7,78,29.91,10.0,SSE,6.9,16.1,N/A,,Clear,150,2013-09-28 03:15:00
10:35 PM,77.9,70.9,79,29.91,10.0,SSE,13.8,19.6,N/A,,Mostly Cloudy,150,2013-09-28 03:35:00
10:55 PM,78.1,70.7,78,29.92,10.0,SSE,9.2,-,N/A,,Mostly Cloudy,150,2013-09-28 03:55:00
11:15 PM,77.5,70.7,79,29.92,10.0,SSE,12.7,20.7,N/A,,Mostly Cloudy,160,2013-09-28 04:15:00
11:35 PM,77.2,70.3,79,29.91,10.0,SSE,10.4,17.3,N/A,,Mostly Cloudy,160,2013-09-28 04:35:00
11:55 PM,77.0,70.3,80,29.92,10.0,SSE,10.4,-,N/A,,Scattered Clouds,160,2013-09-28 04:55:00